Content
SEND FEEDBACK

Daily
Averages
Monthly
Summary
United States of America

BIG TIMBER, MONTANA


Home > North America > United States > Montana
Elevation: 4482 feet     Latitude: 45 48N     Longitude: 109 58W

WEATHER
 
SELECT A DAY
Number of Records: 180,247;   Date Range: 1/1/95 - 10/24/14
 
SHARE

PRINT THIS DATA

[ ← Previous Day ]
WEATHER ALMANAC - AUGUST 25, 2014
[ Next Day → ]
[ °C ]   °F
Weather ElementAverageHighLow
Temperature55.6 °F68 °F (8:53 am)39 °F (4:53 am)
Dewpoint39.8 °F46.9 °F (2:53 am)35.1 °F (1:53 pm)
Humidity58.1 %86 % (5:53 am)39 % (5:53 pm)
Barometer30.10 in30.19 in (6:53 am)30.02 in (6:53 am)
Wind Speed6.3 mph12.7 mph (3:53 am)
Wind Gust20.7 mph (11:53 am)
Weather ElementAverage
Visibility10 mi
Wind DirectionSSE (168.9 °)

Weather ElementTotal
Precipitation---
Heating Degree Days11.5 (Base 65)
Growing Degree Days3.5 (Base 50)
Averaged from 19 records on August 25, 2014
WEATHER CONDITIONS BREAKOUT
WIND DIRECTION BREAKOUT
WEATHER BY HOUR - AUGUST 25, 2014
[ °C ]   °F
Local TimeTemperatureDewpointHumidityBarometerVisibilityWind DirectionWind SpeedGust SpeedPrecipitationEventsConditions
12:53 AM45.0 °F36.0 °F71 %30.15 in10.0 miWNW (290°)6.9 mphClear
1:53 AM45.0 °F37.0 °F74 %30.14 in10.0 miNW (320°)4.6 mphMostly Cloudy
3:53 AM43.0 °F36.0 °F76 %30.15 in10.0 miNW (310°)5.8 mphOvercast
4:53 AM39.0 °F35.1 °F86 %30.16 in10.0 miNW (320°)5.8 mphPartly Cloudy
6:53 AM39.9 °F35.1 °F83 %30.18 in10.0 miWest (270°)3.5 mphMostly Cloudy
8:53 AM46.0 °F37.0 °F71 %30.19 in10.0 miWNW (300°)5.8 mphPartly Cloudy
9:53 AM52.0 °F37.9 °F59 %30.16 in10.0 miNorth (360°)3.5 mphClear
10:53 AM55.9 °F37.0 °F49 %30.14 in10.0 miCalmClear
11:53 AM59.0 °F37.0 °F44 %30.12 in10.0 miENE (70°)4.6 mphMostly Cloudy
12:53 PM61.0 °F39.0 °F44 %30.10 in10.0 miSE (130°)3.5 mphClear
1:53 PM64.0 °F39.9 °F41 %30.07 in10.0 miENE (70°)4.6 mphClear
2:53 PM66.0 °F42.1 °F42 %30.06 in10.0 miEast (80°)11.5 mphClear
3:53 PM68.0 °F42.1 °F39 %30.03 in10.0 miENE (70°)12.7 mph20.7 mphClear
4:53 PM66.9 °F41.0 °F39 %30.03 in10.0 miENE (70°)9.2 mphScattered Clouds
5:53 PM68.0 °F42.1 °F39 %30.02 in10.0 miEast (80°)10.4 mphClear
6:53 PM66.0 °F43.0 °F43 %30.03 in10.0 miENE (70°)9.2 mphPartly Cloudy
9:53 PM59.0 °F46.9 °F64 %30.05 in10.0 miSouth (180°)3.5 mph0.00 inRainLight Rain
10:53 PM57.0 °F46.0 °F67 %30.06 in10.0 miEast (100°)8.1 mph0.00 inOvercast
11:53 PM55.9 °F46.9 °F72 %30.06 in10.0 miESE (120°)6.9 mphOvercast
Hourly data recorded from KLVM, located miles away from Big Timber, Montana







STORIES FROM OUR PARTNERS